[[{"header":{"parameterUnit":"m.s-1","parameterCategory":1,"la1":30.2991,"la2":30.254,"lo1":-89.0895,"lo2":-89.0444,"dy":0.0017,"dx":0.0017,"nx":28,"ny":28,"refTime":"2024-05-14T09:00:00:Z","depth":0,"parameterNumber":2,"parameterNumberName":"U-component_of_WINDS"},"data":[0,0,0,0,0,0,0,0,0,0,0,0,0,0,0,0,0,0,0,0,0,0,0,0,0,0,0,0,0,0,0,0,0,0,0,0,0,0,0,0,0,0,0,0,0,0,0,0,0,0,0,0,0,0,0,0,0,0,2.7571,2.757,0,2.752,2.7519,2.7518,2.7448,2.7447,2.7446,2.7445,2.7389,2.7389,2.7388,0,0,0,0,0,0,0,0,0,0,0,0,0,2.7601,2.7601,2.7571,2.757,2.7569,2.752,2.7519,2.7518,2.7448,2.7447,2.7445,2.7444,2.7389,2.7389,2.7388,0,0,0,0,0,0,0,0,0,0,0,0,0,2.7573,2.7601,2.7571,2.7529,2.7524,2.752,2.7519,2.7518,2.7449,2.7447,2.7445,2.7443,2.7389,2.7389,2.7388,2.742,0,0,2.7386,2.7386,0,0,0,0,0,0,0,0,2.7575,2.7572,2.7535,2.7531,2.7527,2.7488,2.7509,2.7485,2.7449,2.7477,2.7445,2.7442,2.7423,2.742,2.7414,2.7417,2.7415,2.7386,2.7386,2.7386,2.7386,0,0,0,0,0,0,0,2.7577,2.7574,2.755,2.7535,2.753,2.751,2.7504,2.7504,2.7461,2.7475,2.7469,2.7464,2.7421,2.7415,2.7412,2.7414,2.7386,2.7386,2.7386,2.7385,2.7434,2.7436,0,0,0,0,0,0,2.7586,2.7576,2.7552,2.7549,2.7547,2.7511,2.7504,2.7502,2.7461,2.7452,2.7466,2.7461,2.7417,2.7413,2.741,2.744,2.7386,2.7385,2.7385,2.7433,2.7435,2.7436,0,0,0,0,0,0,2.7586,2.7584,2.7554,2.7561,2.7555,2.7512,2.7511,2.7502,2.7496,2.7454,2.7445,2.7469,2.7415,2.7411,2.7417,2.7437,2.7385,2.7384,2.7431,2.7433,2.7436,2.7504,0,0,0,0,0,0,2.7588,2.7585,2.7598,2.7562,2.7555,2.7564,2.7512,2.7503,2.7496,2.7489,2.7454,2.7446,2.7413,2.7418,2.7416,2.7436,2.7384,2.7429,2.7432,2.7435,2.75,2.7508,2.7516,0,0,0,0,0,2.7589,2.762,2.76,2.7597,2.7572,2.7566,2.7562,2.7524,2.7498,2.751,2.7481,2.7448,2.7436,2.7419,2.7417,2.7436,2.7427,2.7431,2.7435,2.7496,2.7507,2.7516,0,0,0,0,0,0,2.7661,2.7615,2.7591,2.7612,2.7593,2.7554,2.7568,2.7537,2.7525,2.7519,2.7471,2.7464,2.7475,2.7456,2.7439,2.7462,2.7426,2.7429,2.7473,2.7483,2.7491,2.7495,2.7384,0,0,0,0,0,2.7679,2.768,2.7639,2.7661,2.7652,2.7612,2.7608,2.758,2.7558,2.7549,2.7522,2.7501,2.7491,2.7487,2.7476,2.7497,2.7485,2.7508,2.7516,2.7523,2.7526,2.753,2.7539,2.7449,2.7449,2.7449,0,0,2.7717,2.7692,2.7695,2.7674,2.7657,2.7655,2.7606,2.7608,2.7605,2.7549,2.7553,2.7531,2.7504,2.7516,2.752,2.7501,2.7548,2.7528,2.7534,2.7533,2.7535,2.7544,2.7551,2.7451,2.7451,2.745,0,0,2.7784,2.7767,2.7781,2.7764,2.7737,2.7709,2.7712,2.7676,2.766,2.7663,2.7619,2.7614,2.7601,2.7582,2.757,2.7625,2.7592,2.7623,2.7666,2.767,2.7677,2.7683,2.7699,2.7706,2.7627,2.7627,2.7627,0,2.7834,2.7833,2.7792,2.7796,2.7786,2.7735,2.7746,2.7731,2.7702,2.7695,2.7675,2.7653,2.7632,2.7636,2.7649,2.7643,2.7642,2.7627,2.768,2.7685,2.769,2.7705,2.7711,2.7631,2.763,2.763,2.7629,0,2.7893,2.7892,2.7906,2.7879,2.7871,2.7879,2.7837,2.7833,2.7805,2.7778,2.7778,2.775,2.773,2.773,2.7703,2.7729,2.7717,2.7689,2.7652,2.7703,2.7716,2.7721,2.7636,2.7635,2.7634,2.7633,0,0,2.8006,2.7953,2.7959,2.7944,2.7909,2.7906,2.7909,2.7891,2.7886,2.7867,2.7866,2.7854,2.7826,2.7813,2.7783,2.7787,2.7827,2.7757,2.7756,2.7768,2.7848,2.7868,2.7875,2.7805,2.7805,2.7806,2.7849,0,2.8064,2.8069,2.803,2.8044,2.804,2.7989,2.7991,2.7968,2.7942,2.7933,2.7903,2.7894,2.786,2.7851,2.7853,2.7822,2.7842,2.7818,2.78,2.78,2.7806,2.7882,2.7904,2.7946,2.7854,2.7855,2.7855,0,2.8133,2.8117,2.813,2.809,2.8087,2.809,2.8067,2.806,2.8031,2.8011,2.7995,2.7959,2.7956,2.7922,2.7914,2.7899,2.7888,2.7871,2.7872,2.7867,2.783,2.7876,2.7959,2.7964,2.7863,2.7863,2.7862,0,2.821,2.8191,2.8195,2.8184,2.8139,2.8141,2.8122,2.8091,2.8081,2.806,2.8052,2.8031,2.8019,2.8002,2.796,2.794,2.7956,2.7919,2.7936,2.7937,2.7941,2.7941,2.802,2.7939,2.7939,2.7938,2.7938,0,2.8277,2.8287,2.8228,2.8231,2.8238,2.8192,2.82,2.8175,2.8147,2.8141,2.8096,2.8091,2.8038,2.8026,2.7993,2.7989,2.7985,2.7966,2.7956,2.7969,2.7971,2.796,2.7955,2.794,2.794,2.7939,2.7939,0,2.8364,2.8326,2.8326,2.8282,2.8271,2.8278,2.8238,2.8237,2.8207,2.82,2.8195,2.8148,2.813,2.8087,2.8059,2.8037,2.804,2.8025,2.805,2.8044,2.8062,2.806,2.8135,2.8141,2.8059,2.806,2.8061,0,2.8409,2.8414,2.837,2.8363,2.8346,2.8336,2.8324,2.8278,2.8268,2.8232,2.8234,2.8213,2.8194,2.8168,2.8129,2.8106,2.8088,2.8116,2.8084,2.8094,2.8084,2.8083,2.8081,2.8123,2.8124,2.8125,2.8125,0,2.8491,2.8471,2.8457,2.8435,2.8423,2.8403,2.8381,2.8378,2.8325,2.8315,2.8297,2.8282,2.8252,2.823,2.82,2.8176,2.8141,2.8136,2.8138,2.8149,2.8162,2.8151,2.8066,2.8134,2.8133,2.8132,2.8132,2.8132,2.8555,2.8556,2.8524,2.8509,2.8487,2.8466,2.8462,2.843,2.8415,2.8387,2.836,2.8344,2.8309,2.8265,2.8244,2.8228,2.821,2.8214,2.8215,2.8216,2.8219,2.8166,2.8223,2.8222,2.8222,2.8222,2.8222,0,2.8632,2.8608,2.8595,2.8565,2.8551,2.852,2.8493,2.8483,2.847,2.8441,2.8423,2.8399,2.8377,2.8335,2.8308,2.8303,2.8285,2.8297,2.8296,2.829,2.8239,2.8238,2.8311,2.8311,2.8311,2.8311,2.8311,2.8311,2.867,2.8669,2.8644,2.863,2.8605,2.859,2.8576,2.8555,2.8531,2.8508,2.8489,2.8463,2.8427,2.8396,2.8373,2.8361,2.8351,2.8368,2.835,2.8303,2.8294,2.8286,2.8285,2.8367,2.8367,2.8402,2.8402,2.8403]},{"header":{"parameterUnit":"m.s-1","parameterCategory":1,"la1":30.2991,"la2":30.254,"lo1":-89.0895,"lo2":-89.0444,"dy":0.0017,"dx":0.0017,"nx":28,"ny":28,"refTime":"2024-05-14T09:00:00:Z","depth":0,"parameterNumber":3,"parameterNumberName":"V-component_of_WINDS"},"data":[0,0,0,0,0,0,0,0,0,0,0,0,0,0,0,0,0,0,0,0,0,0,0,0,0,0,0,0,0,0,0,0,0,0,0,0,0,0,0,0,0,0,0,0,0,0,0,0,0,0,0,0,0,0,0,0,0,0,7.4805,7.4806,0,7.4906,7.4907,7.4908,7.4869,7.4867,7.4864,7.4862,7.496,7.4964,7.4969,0,0,0,0,0,0,0,0,0,0,0,0,0,7.4569,7.4574,7.4805,7.4806,7.4808,7.4906,7.4907,7.4909,7.4869,7.4866,7.4864,7.4861,7.4958,7.4964,7.4969,0,0,0,0,0,0,0,0,0,0,0,0,0,7.4671,7.4575,7.4805,7.48,7.4801,7.4906,7.4907,7.4909,7.487,7.4866,7.4863,7.486,7.4956,7.4963,7.497,7.5084,0,0,7.4992,7.4995,0,0,0,0,0,0,0,0,7.4665,7.468,7.4799,7.48,7.4801,7.4871,7.486,7.4967,7.4871,7.4843,7.4862,7.4858,7.4933,7.4941,7.4968,7.5089,7.5093,7.4993,7.4997,7.5,7.5002,0,0,0,0,0,0,0,7.4658,7.4675,7.4845,7.4801,7.4802,7.479,7.48,7.488,7.4906,7.4845,7.4843,7.4856,7.4932,7.4961,7.497,7.5094,7.4992,7.4999,7.5003,7.5006,7.5309,7.5312,0,0,0,0,0,0,7.4652,7.467,7.4842,7.4848,7.4724,7.4797,7.4809,7.4852,7.4905,7.491,7.4859,7.4853,7.4951,7.4962,7.4973,7.5107,7.5,7.5007,7.5011,7.5305,7.5309,7.5313,0,0,0,0,0,0,7.4647,7.4668,7.4837,7.4758,7.4779,7.4805,7.4854,7.4856,7.4885,7.4915,7.4919,7.4884,7.4948,7.4963,7.5056,7.511,7.501,7.5016,7.53,7.5306,7.5311,7.5378,0,0,0,0,0,0,7.4641,7.4666,7.4712,7.4759,7.4783,7.4922,7.4857,7.4861,7.4898,7.4892,7.494,7.4944,7.4947,7.5046,7.5063,7.5118,7.5022,7.5296,7.5303,7.531,7.5371,7.5385,7.5398,0,0,0,0,0,7.4632,7.4727,7.4715,7.4736,7.4842,7.4925,7.4938,7.4941,7.4903,7.4947,7.4966,7.4943,7.5102,7.5056,7.5075,7.5133,7.5292,7.5301,7.5309,7.5365,7.5383,7.5397,0,0,0,0,0,0,7.4684,7.4733,7.472,7.4834,7.4876,7.4918,7.4975,7.496,7.5012,7.5005,7.5003,7.5014,7.511,7.5131,7.5079,7.5244,7.5191,7.5203,7.5227,7.5244,7.5256,7.5249,7.5028,0,0,0,0,0,7.4709,7.4775,7.4813,7.4909,7.4931,7.4949,7.4986,7.4984,7.5027,7.5044,7.507,7.511,7.5168,7.5207,7.5263,7.5374,7.5382,7.5423,7.5436,7.5447,7.5457,7.5514,7.5531,7.5341,7.5341,7.5341,0,0,7.4761,7.4795,7.4837,7.492,7.4953,7.5018,7.4965,7.5037,7.5084,7.5054,7.5144,7.5164,7.5208,7.531,7.5356,7.533,7.5511,7.5457,7.5466,7.5471,7.5524,7.5542,7.5558,7.5347,7.5346,7.5345,0,0,7.4888,7.4922,7.5005,7.5038,7.5087,7.5098,7.5118,7.5163,7.5175,7.5265,7.5242,7.5297,7.5399,7.5431,7.546,7.5595,7.5574,7.5613,7.5682,7.5736,7.5751,7.5765,7.581,7.5827,7.5624,7.5624,7.5624,0,7.4945,7.5046,7.5048,7.5122,7.5157,7.5133,7.5214,7.5245,7.531,7.5334,7.5304,7.5429,7.5458,7.5565,7.5597,7.5623,7.5642,7.5608,7.5749,7.5763,7.5775,7.5818,7.5835,7.5628,7.5628,7.5627,7.5627,0,7.5112,7.5181,7.5241,7.5305,7.5347,7.5424,7.5435,7.5476,7.547,7.5483,7.5572,7.5605,7.5666,7.5691,7.5685,7.5796,7.5778,7.5749,7.5696,7.5797,7.5838,7.5854,7.5634,7.5633,7.5632,7.5631,0,0,7.5277,7.5339,7.5361,7.5388,7.5439,7.5491,7.5565,7.5625,7.5659,7.5704,7.5763,7.5848,7.5821,7.5854,7.5852,7.59,7.6001,7.5865,7.5865,7.5887,7.612,7.6141,7.616,7.5987,7.5991,7.5993,7.6116,0,7.5407,7.5539,7.5541,7.566,7.5722,7.5698,7.5761,7.5798,7.5811,7.5863,7.5876,7.5936,7.5897,7.5916,7.5963,7.5979,7.6047,7.597,7.604,7.6042,7.6028,7.6182,7.6205,7.6319,7.6132,7.6135,7.6137,0,7.5576,7.5626,7.5752,7.5791,7.5817,7.5875,7.5928,7.5979,7.6018,7.6023,7.6059,7.6048,7.6119,7.6064,7.616,7.6107,7.6135,7.6147,7.6151,7.6157,7.6095,7.619,7.6356,7.6372,7.6162,7.616,7.6158,0,7.5681,7.578,7.5867,7.5891,7.5939,7.5979,7.6001,7.6037,7.6071,7.6117,7.6138,7.6191,7.622,7.626,7.6262,7.6222,7.6357,7.6303,7.6361,7.6361,7.6391,7.6389,7.6562,7.6412,7.6411,7.6411,7.6411,0,7.5825,7.5902,7.5914,7.5968,7.6052,7.6052,7.6134,7.6152,7.6183,7.6237,7.6219,7.6269,7.627,7.632,7.6322,7.6399,7.6413,7.6417,7.6416,7.6418,7.6417,7.6436,7.6427,7.6416,7.6415,7.6414,7.6413,0,7.5956,7.5968,7.6061,7.6098,7.6109,7.6169,7.6199,7.6248,7.6259,7.6327,7.6342,7.6358,7.6416,7.6422,7.649,7.649,7.6583,7.6575,7.6571,7.6569,7.6626,7.6619,7.6816,7.684,7.6676,7.6677,7.6679,0,7.6047,7.6106,7.6149,7.6184,7.6208,7.6265,7.63,7.6301,7.6337,7.6384,7.6427,7.6483,7.6528,7.6621,7.6637,7.6687,7.6679,7.6744,7.6686,7.6685,7.6677,7.6673,7.6677,7.6755,7.6757,7.6758,7.676,0,7.6206,7.6208,7.626,7.6313,7.6355,7.6397,7.6436,7.6465,7.647,7.6511,7.6571,7.6606,7.6674,7.6729,7.6778,7.6796,7.6778,7.6778,7.6793,7.6795,7.6789,7.6791,7.6599,7.6773,7.6772,7.6771,7.677,7.6769,7.6318,7.6368,7.6405,7.6462,7.6491,7.6527,7.6574,7.659,7.664,7.6696,7.6693,7.6757,7.679,7.6854,7.6877,7.6925,7.6903,7.6927,7.6932,7.6938,7.6942,7.6783,7.6934,7.6934,7.6933,7.6933,7.6933,0,7.6474,7.6496,7.6549,7.6603,7.6647,7.6627,7.6668,7.6705,7.6763,7.6796,7.6841,7.6907,7.6959,7.6978,7.7028,7.7063,7.7055,7.7076,7.7072,7.7076,7.6961,7.6941,7.7081,7.7081,7.7081,7.7081,7.7081,7.7081,7.656,7.6642,7.6648,7.6742,7.6763,7.6827,7.6851,7.6883,7.6909,7.6984,7.7028,7.704,7.7066,7.7117,7.7163,7.7167,7.7185,7.7209,7.7209,7.71,7.7085,7.7071,7.7052,7.7213,7.7213,7.732,7.7321,7.7322]}]]